Regional Weather Roundup
Issued by NWS Wakefield, VA

Home | Current Version | Previous Version | Text Only | Print | Product List | Glossary Off
Versions: 1 2 3 4 5 6 7 8 9 10 11 12 13 14 15 16 17 18 19 20 21 22 23 24 25 26 27 28 29 30 31 32 33 34 35 36 37 38 39 40 41 42 43 44 45 46

000
ASUS41 KAKQ 240810
RWRAKQ

REGIONAL WEATHER ROUNDUP
NATIONAL WEATHER SERVICE WAKEFIELD VA
300 AM EST WED DEC 24 2014

Note: "fair" indicates few or no clouds below 12,000 feet with no
significant weather and/or obstructions to visibility. * = Denotes
station may not report precipitation (e.g., rain,snow,etc.),
thunder or fog.

VAZ042-051-052>054-056-240900-
NORTHERN VIRGINIA

CITY           SKY/WX    TMP DP  RH WIND       PRES   REMARKS
WASH NATIONAL  LGT RAIN  47  44  90 CALM      29.98F FOG
DULLES         LGT RAIN  43  43 100 CALM      29.96F FOG
FORT BELVOIR   LGT RAIN  45  43  93 CALM      29.97F
QUANTICO       LGT RAIN  44  41  89 E5        29.98F FOG
FREDERICKSBRG* LGT RAIN  45  45 100 CALM      29.95F
STAFFORD*      LGT RAIN  44  44 100 CALM      30.00F
WARRENTON      DRIZZLE   44  44 100 E3        29.95F
CULPEPER*      LGT RAIN  45  45 100 CALM      29.95F
MANASSAS*      CLOUDY    45  45 100 CALM      29.97F
LEESBURG*      LGT RAIN  43  43 100 CALM      29.97F
WINCHESTER     DRIZZLE   41  37  87 CALM      29.93F
FRONT ROYAL*   CLOUDY    37  37 100 CALM      29.93F
LURAY*         RAIN      41  41 100 CALM      29.92F
$$

VAZ048-049-060>072-079>083-240900-
CENTRAL AND SOUTH CENTRAL VIRGINIA

CITY           SKY/WX    TMP DP  RH WIND       PRES   REMARKS
RICHMOND       LGT RAIN  46  45  93 E3        29.94F FOG
CHESTERFIELD*  CLOUDY    45  36  70 E3        29.95F
PETERSBURG*    DRIZZLE   46  46  97 E3        29.95S
HANOVER        LGT RAIN  45  44  97 NE3       29.96F
TAPPAHANNOCK*  RAIN      46  45  95 E5        29.97F
QUINTON*       CLOUDY    45  45  99 E5        29.95F
CHARLOTTSVILLE CLOUDY    43  42  97 CALM      29.94F
GORDONSVILLE*  CLOUDY    43  43 100 CALM      29.94F FOG
ORANGE*        DRIZZLE   43  43 100 CALM      29.96F
LOUISA*        DRIZZLE   45  43  93 N3        29.93F
BUMPASS*       CLOUDY    44  43  98 CALM      29.93F
FARMVILLE*     LGT RAIN  46  46 100 N5        29.96F
CREWE*         CLOUDY    44  42  95 CALM      29.94F
FORT PICKETT*  CLOUDY    44  44  99 CALM      29.93F
CHASE CITY*    CLOUDY    46  46 100 E3        29.91F
CLARKSVILLE*   CLOUDY    45  45 100 CALM      29.91F VSB 1/2
SOUTH HILL*    CLOUDY    45  45  99 CALM      29.98F VSB 1
LAWRENCEVILLE* CLOUDY    46  46 100 E3        29.93F
EMPORIA*       RAIN      45  45 100 CALM      29.95F
$$

VAZ088>098-240900-
SOUTHEAST VIRGINIA

CITY           SKY/WX    TMP DP  RH WIND       PRES   REMARKS
NORFOLK        CLOUDY    51  49  92 CALM      29.95F FOG
VIRGINIA BEACH LGT RAIN  57  56  96 SE12      29.95F FOG
NORFOLK NAVAL  CLOUDY    54  49  83 E5        29.96F
WEST POINT*    CLOUDY    49  47  93 E3        29.97F
SALUDA*        CLOUDY    45  44  97 SE6       29.97F
NEWPORT NEWS   LGT RAIN  50  47  89 N3        29.96S
LANGLEY AFB    CLOUDY    50  48  93 E5        29.95F
FORT EUSTIS    CLOUDY    50 N/A N/A E3        29.93F
WILLIAMSBURG*  CLOUDY    50  48  93 CALM      29.96F
HR EXEC AP*    CLOUDY    52  48  87 CALM      29.97F
FRANKLIN*      CLOUDY    48 N/A N/A CALM      29.95S
WAKEFIELD      LGT RAIN  48  46  93 CALM      29.95F
$$

VAZ020-022-025-037-045-240900-
WEST CENTRAL AND SOUTHWEST VIRGINIA

CITY           SKY/WX    TMP DP  RH WIND       PRES   REMARKS
STAUNTON*      DRIZZLE   41  40  94 CALM      29.94F
WAYNESBORO*    CLOUDY    40  40  99 NE3       29.92S
HOT SPRINGS VA LGT RAIN  46  46 100 S10       29.87S VSB 1/4
LYNCHBURG      LGT RAIN  42  42 100 NE8       29.93F FOG
DANVILLE       CLOUDY    44  42  93 NE6       29.90F FOG
SOUTH BOSTON*  CLOUDY    44  42  95 CALM      29.91F
MARTINSVILLE   DRIZZLE   43  43 100 N3        29.93S
ROANOKE        LGT RAIN  43  41  93 CALM      29.94S FOG
BLACKSBURG     LGT RAIN  42  41  97 CALM      29.92R
DUBLIN*        RAIN      43  43 100 CALM      29.90R
MARION*        RAIN      49  47  95 E6        29.88F
HILLSVILLE*    RAIN      46  46 100 S3        29.88R VSB 1/2
RICHLANDS*     LGT RAIN  51  49  93 SE10      29.77F
WISE*          DRIZZLE   54  54 100 SE6       29.78S
ABINGDON*      LGT RAIN  55  55 100 E9        29.78F
$$

MDZ021>025-VAZ099-100-240900-
SOUTHERN MARYLAND AND THE DELMARVA PENINSULA

CITY           SKY/WX    TMP DP  RH WIND       PRES   REMARKS
PATUXENT RIVER RAIN      44  42  93 E10       29.97F FOG
BAY BRIDGE APT RAIN      45  45 100 SE3       29.98F
LEONARDTOWN    CLOUDY    45  43  93 E3        29.99F
DOVER          LGT RAIN  46  46 100 E6        29.99F FOG
GEORGETOWN     RAIN      47  46  97 E5        30.02F
EASTON         LGT RAIN  50  50 100 CALM      30.03F
CAMBRIDGE      CLOUDY    52  50  93 E7        29.98F
SALISBURY      LGT RAIN  50  47  89 E7        30.01F
OCEAN CITY     RAIN      46  46 100 E3        30.02F FOG
WALLOPS ISLAND RAIN      45  45 100 E8        30.01F FOG
ACCOMACK*      LGT SNOW  46  45  93 E8        29.98F
$$

NCZ012>017-030>032-240900-
NORTH CENTRAL AND EASTERN NORTH CAROLINA

CITY           SKY/WX    TMP DP  RH WIND       PRES   REMARKS
ROANOKE RAPIDS CLOUDY    45  45 100 CALM      29.92F FOG
RALEIGH        FOG       48  46  93 NE3       29.89F VSB 1/8
ELIZABETH CITY LGT RAIN  60  56  86 SE9       29.96F VSB 1
AHOSKIE*       LGT RAIN  51  50  98 CALM      29.93F VSB 1
EDENTON*       FOG       55  54  99 E5        29.94F VSB 3/4
CURRITUCK*     LGT RAIN  56  55  95 CALM      29.97S
KILL DEVIL HLS DRZL/FOG  59  59 100 SE7       29.96S VSB 1/4
MANTEO         NOT AVBL
CAPE HATTERAS  LGT RAIN  61  61 100 S7        29.97F FOG
TARBORO*       CLOUDY    48  47  97 CALM      29.93F
GOLDSBORO      FOG       54  54 100 SE5       29.88F VSB 3/4
WASHINGTON     CLOUDY    55  54  99 SE5       29.95R
GREENVILLE     RAIN      52  52 100 SE3       29.95S VSB 1
NEW BERN       MOCLDY    58  55  90 SE6       29.94F FOG
WILMINGTON     FOG       60  60 100 SE6       29.92S VSB 1
$$

VAZ048-240900-
ELSEWHERE

CITY           SKY/WX    TMP DP  RH WIND       PRES   REMARKS
HARRISBURG PA  LGT RAIN  45  44  97 E8        29.97F FOG
BALTIMORE      LGT RAIN  46  45  96 E5        29.97F FOG
ANNAPOLIS      RAIN      44  44 100 E6        29.96F FOG
ANDREWS AFB    NOT AVBL
PHILADELPHIA   LGT RAIN  47  45  93 E5        30.04S VSB 1
HENDERSON NC   RAIN      45  44  95 NE3       29.90F VSB 1/2
GREENSBORO     LGT RAIN  43  42  97 NE7       29.89F VSB 1/2
ROCKY MOUNT    CLOUDY    48  47  96 CALM      29.92F FOG
$$

VAZ100-240900-
MARINE

STATION/POSITION TIME  TEMP    WIND        PRES    WAVE   SWELL
                       AIR SEA DIR/SP/G            HT/PER HT/PER
                 (UTC) (F)     (DEG/KT/KT) (MB)    (FT/S) (FT/S)
CAPE MAY NJ      0800   47 45   80/  7/ 12 1016.3F
LEWES DE         0800   46 43  120/  5/  8 1016.4F
15NM E FENWICK I 0700   47 47              1017.2R   5/ 8
OCEAN-CITY-INLET 0800   46 44  100/  5/  6 1016.3R
WACHAPREAGUE VA  0800   46 45   60/  6/  8 1015.7F
THOMAS POINT MD  0800   45 41  110/  3/  3 1016.4F
GOOSES REEF MD   0800   43     VRB  4/  4  1014.8F
COVE POINT MD    0800   43     100/  3/  4 1015.2F
SOLOMONS ISLAND  0800      43                N/A
BISHOPS HEAD MD  0800   43 42   60/  4/  6 1014.9F
PINEY POINT MD   0800          130/  9/ 10   N/A
POTOMAC MD       0800   44     100/  6/  8 1014.4F
CAMBRIDGE MD     0800   46 40   70/  5/  6 1015.1F
LEWISETTA VA     0800   43 41   CALM  /  1 1014.9F
RAPPAHANNOCK LGT 0800          100/  7/  8 1015.4F
STINGRAY PT      0800   45      90/  4/  6 1015.5F
YORK RVR RNG VA  0800   47     110/  9/ 10 1013.6F
YORKTOWN VA      0800   45 45   50/  4/  5 1014.5F
JAMESTOWN VA     0800   46     110/  4/  6   N/A
DOMINION TERM VA 0800   48      40/  2/  5 1014.1F
KIPTOPEKE VA     0800      49   90/ 13/ 16   N/A
CHES BAY BRIDGE  0800   50 45   60/ 11/ 11 1013.7F
CAPE HENRY VA    0800   52     130/  8/ 11 1013.4S
CHESAPEAKE LGHT  0700   53     120/ 18/ 19 1015.7F
WILLOUBY STN VA  0800   47      80/  7/  8 1014.6S
S CRANEY ISL VA  0800           80/  2/  3 1013.9F
CAPE HENRY BUOY  0800      48                N/A     3/ 8
1ST LANDING BUOY 0800   49     110/  4/  4 1014.5F
CAPE CHARLES BUO 0800      47                N/A     3/ 8   2/ 8
64NM E OF VA BCH 0800   56 53   60/  6/  8 1015.0F   4/ 8   3/ 8
DUCK PIER NC     0800   52 48  140/  9/  9 1013.9F
44100 DUCK FRF   0800      50                N/A     4/ 7
44056 DUCK FRF   0800      48                N/A     3/ 7
OREGON INLET NC  0800   56 50   90/  5/  6 1015.0R
HATTERAS NC      0800   63 54  170/  7/  9 1015.2F
DIAMOND SHLS NC  0800   67                 1016.1R   4/10
CAPE LOOKOUT NC  0700   64     140/  9/ 10 1013.9F
$$


USA.gov is the U.S. government's official web portal to all federal, state and local government web resources and services.